Погода в Валмиере

Латвия     57°31′57″N   25°25′17″E
В апреле 2022 года жителям России запретили посещать сайт meteo.paraplan.net по решению Генеральной прокуратуры. Аудитория сайта уменьшилась в 10 раз. Владельцы сайта не видят смысла в поддержке погодного сервера в таких условиях. Сайт будет закрыт в октябре.
темп.,
°C
ветер,
м/с
пор.,
м/с
влажн.,
%
обл.,
%
осадки,
мм/ч
давл.,
гПа
погр.,
м
25 сентября, вс
вс2500:00+9сз2670100 0.0 1014167
03:00+7ссз228345 0.0 101448
06:00+4зсз229450 0.0 101432
09:00+8зсз387735 0.0 1013305
12:00+13ссз465310 0.0 10121385
15:00+14сз464698 0.0 10101870
18:00+11сз3666100 0.0 1010409
21:00+9з258696 0.3 1009145
26 сентября, пн
пн2600:00+8с118346 0.0 100912
03:00+5ю11927 0.0 100910
06:00+5юв229461 0.0 100818
09:00+8юв2382100 0.0 1008139
12:00+11ююв247395 0.0 1008350
15:00+14ююв345975 0.2 10081028
18:00+12ююв257275 0.4 1007113
21:00+8юв378931 0.4 1008121
27 сентября, вт
вт2700:00+9юв288799 0.0 1008177
03:00+9вюв268584 0.0 1008163
06:00+7вюв229031 0.0 100841
09:00+9вюв378132 0.0 1008238
12:00+14вюв355727 0.0 1008855
15:00+16вюв454636 0.0 10071744
18:00+14вюв3753100 0.0 1007342
21:00+12в41063100 0.0 1007510
28 сентября, ср
ср2800:00+10в41066100 0.0 1007458
03:00+9в3872100 0.0 1006367
06:00+8в3979100 0.1 1006361
09:00+8в4981100 0.2 1005376
12:00+10в487690 0.3 1005426
15:00+14вюв4659100 0.3 10031343
18:00+12вюв4969100 0.3 1003655
21:00+10вюв41276100 0.3 1004535
29 сентября, чт
чт2900:00+9в51280100 0.0 1005481
03:00+9вюв51280100 0.0 1005612
06:00+8вюв499153 0.2 1006447
09:00+9вюв388826 0.2 1007387
12:00+13юв4762100 0.0 1007853
15:00+13юв51065100 0.1 1007991
18:00+10юв41191100 2.1 1007792
21:00+10ююв41094100 5.1 1008755